RYR2889 LEBL-LEPA

Flight info

Callsign RYR2889
Flight time 0h 33m
Altitude 19000
Route LARPA N859 TOLSO
Aircraft B738/M-SDE3FGILRWY/SB1

Departure

Time 2026-05-05 12:32
Airport Josep Tarradellas Barcelona-El Prat Airport (LEBL)

Arrival

Time 2026-05-05 13:05
Airport Palma de Mallorca Airport (LEPA)
Time Latitude Longitude Altitude Speed Heading
2026-05-05 12:16 41.30492 2.08387 18 ft 0 kts 245°
2026-05-05 12:21 41.30493 2.08391 18 ft 2 kts 243°
2026-05-05 12:21 41.30500 2.08411 20 ft 2 kts 246°
2026-05-05 12:21 41.30508 2.08430 19 ft 2 kts 226°
2026-05-05 12:22 41.30523 2.08437 19 ft 2 kts 166°
2026-05-05 12:22 41.30531 2.08434 19 ft 1 kts 160°
2026-05-05 12:23 41.30529 2.08435 20 ft 2 kts 160°
2026-05-05 12:24 41.30486 2.08472 18 ft 13 kts 133°
2026-05-05 12:24 41.30399 2.08559 18 ft 17 kts 155°
2026-05-05 12:24 41.30294 2.08602 18 ft 15 kts 201°
2026-05-05 12:24 41.30260 2.08520 18 ft 10 kts 246°
2026-05-05 12:25 41.30206 2.08491 18 ft 10 kts 167°
2026-05-05 12:25 41.30150 2.08411 18 ft 20 kts 245°
2026-05-05 12:25 41.30077 2.08198 19 ft 28 kts 245°
2026-05-05 12:25 41.30001 2.07976 18 ft 25 kts 246°
2026-05-05 12:26 41.29930 2.07768 18 ft 24 kts 245°
2026-05-05 12:26 41.29856 2.07555 17 ft 29 kts 245°
2026-05-05 12:26 41.29773 2.07316 17 ft 28 kts 245°
2026-05-05 12:26 41.29698 2.07093 16 ft 23 kts 244°
2026-05-05 12:27 41.29610 2.07083 16 ft 8 kts 156°
2026-05-05 12:27 41.29590 2.07095 16 ft 0 kts 156°
2026-05-05 12:27 41.29589 2.07095 16 ft 0 kts 156°
2026-05-05 12:30 41.29569 2.07107 16 ft 9 kts 156°
2026-05-05 12:30 41.29490 2.07178 16 ft 12 kts 110°
2026-05-05 12:31 41.29500 2.07241 18 ft 0 kts 65°
2026-05-05 12:31 41.29502 2.07246 18 ft 7 kts 65°
2026-05-05 12:31 41.29629 2.07618 18 ft 81 kts 66°
2026-05-05 12:32 41.29959 2.08580 21 ft 144 kts 66°
2026-05-05 12:32 41.30435 2.09894 510 ft 157 kts 68°
2026-05-05 12:32 41.30930 2.11251 1171 ft 176 kts 66°
2026-05-05 12:32 41.31435 2.12731 1980 ft 178 kts 68°
2026-05-05 12:33 41.31980 2.14361 2454 ft 208 kts 66°
2026-05-05 12:33 41.32605 2.16235 2770 ft 234 kts 66°
2026-05-05 12:33 41.33443 2.18138 3216 ft 243 kts 43°
2026-05-05 12:33 41.34776 2.19634 3543 ft 262 kts 45°
2026-05-05 12:34 41.35987 2.21521 4123 ft 269 kts 51°
2026-05-05 12:34 41.37157 2.23492 4483 ft 275 kts 53°
2026-05-05 12:34 41.37916 2.25829 4797 ft 284 kts 86°
2026-05-05 12:34 41.37674 2.28410 5639 ft 278 kts 114°
2026-05-05 12:35 41.36674 2.30555 6544 ft 273 kts 139°
2026-05-05 12:35 41.35080 2.31847 7319 ft 269 kts 165°
2026-05-05 12:35 41.33249 2.32235 8115 ft 267 kts 179°
2026-05-05 12:35 41.31390 2.32333 8949 ft 268 kts 182°
2026-05-05 12:36 41.29514 2.32385 9787 ft 271 kts 182°
2026-05-05 12:36 41.27615 2.32432 10453 ft 277 kts 182°
2026-05-05 12:36 41.25655 2.32484 11036 ft 286 kts 182°
2026-05-05 12:36 41.23640 2.32544 11724 ft 292 kts 182°
2026-05-05 12:37 41.21596 2.32612 12473 ft 295 kts 182°
2026-05-05 12:37 41.19574 2.32685 12841 ft 294 kts 182°
2026-05-05 12:37 41.17500 2.32762 12919 ft 295 kts 182°
2026-05-05 12:37 41.15454 2.32841 12928 ft 294 kts 182°
2026-05-05 12:38 41.13436 2.32919 12935 ft 294 kts 182°
2026-05-05 12:38 41.11371 2.32998 12985 ft 304 kts 182°
2026-05-05 12:38 41.09208 2.33079 13611 ft 311 kts 182°
2026-05-05 12:38 41.07058 2.33165 14508 ft 309 kts 182°
2026-05-05 12:39 41.04918 2.33250 14834 ft 306 kts 182°
2026-05-05 12:39 41.02803 2.33335 14898 ft 301 kts 183°
2026-05-05 12:39 41.00712 2.33418 14931 ft 302 kts 183°
2026-05-05 12:39 40.98606 2.33500 14933 ft 304 kts 183°
2026-05-05 12:40 40.96482 2.33582 14928 ft 306 kts 183°
2026-05-05 12:40 40.94350 2.33665 14941 ft 307 kts 183°
2026-05-05 12:40 40.92212 2.33748 14932 ft 307 kts 183°
2026-05-05 12:40 40.90077 2.33832 14934 ft 307 kts 183°
2026-05-05 12:41 40.87946 2.33916 14933 ft 306 kts 183°
2026-05-05 12:41 40.85820 2.34000 14926 ft 305 kts 183°
2026-05-05 12:41 40.83700 2.34083 14926 ft 304 kts 183°
2026-05-05 12:41 40.81590 2.34165 14934 ft 303 kts 183°
2026-05-05 12:42 40.79482 2.34248 14922 ft 303 kts 183°
2026-05-05 12:42 40.77377 2.34330 14924 ft 302 kts 183°
2026-05-05 12:42 40.75274 2.34411 14931 ft 302 kts 183°
2026-05-05 12:42 40.73172 2.34493 14938 ft 302 kts 183°
2026-05-05 12:43 40.71068 2.34575 14936 ft 303 kts 183°
2026-05-05 12:43 40.68964 2.34656 14938 ft 303 kts 183°
2026-05-05 12:43 40.66851 2.34738 14937 ft 304 kts 183°
2026-05-05 12:43 40.64739 2.34820 14937 ft 304 kts 183°
2026-05-05 12:44 40.62622 2.34982 14932 ft 307 kts 177°
2026-05-05 12:44 40.60514 2.35589 14943 ft 311 kts 171°
2026-05-05 12:44 40.58422 2.36337 14939 ft 312 kts 170°
2026-05-05 12:44 40.56326 2.37090 14937 ft 312 kts 170°
2026-05-05 12:45 40.54229 2.37831 14936 ft 313 kts 171°
2026-05-05 12:45 40.52122 2.38564 14936 ft 313 kts 171°
2026-05-05 12:45 40.50017 2.39293 14935 ft 313 kts 171°
2026-05-05 12:45 40.47914 2.40023 14936 ft 313 kts 171°
2026-05-05 12:46 40.45815 2.40753 14932 ft 312 kts 171°
2026-05-05 12:46 40.43714 2.41484 14935 ft 312 kts 171°
2026-05-05 12:46 40.41611 2.42215 14936 ft 312 kts 171°
2026-05-05 12:46 40.39509 2.42946 14937 ft 312 kts 171°
2026-05-05 12:47 40.37407 2.43675 14932 ft 312 kts 171°
2026-05-05 12:47 40.35307 2.44404 14934 ft 312 kts 171°
2026-05-05 12:47 40.33207 2.45133 14934 ft 312 kts 171°
2026-05-05 12:47 40.31108 2.45860 14932 ft 312 kts 171°
2026-05-05 12:48 40.29007 2.46588 14935 ft 312 kts 171°
2026-05-05 12:48 40.26937 2.47305 14930 ft 312 kts 171°
2026-05-05 12:48 40.24847 2.48029 14920 ft 307 kts 171°
2026-05-05 12:48 40.22786 2.48745 14916 ft 297 kts 171°
2026-05-05 12:49 40.20868 2.49739 14923 ft 303 kts 153°
2026-05-05 12:49 40.19307 2.51644 14928 ft 317 kts 130°
2026-05-05 12:49 40.18154 2.54084 14816 ft 323 kts 126°
2026-05-05 12:49 40.17044 2.56646 14616 ft 323 kts 124°
2026-05-05 12:50 40.15946 2.59212 14324 ft 323 kts 124°
2026-05-05 12:50 40.14847 2.61761 14016 ft 321 kts 125°
2026-05-05 12:50 40.13747 2.64287 13724 ft 319 kts 125°
2026-05-05 12:50 40.12647 2.66793 13374 ft 317 kts 124°
2026-05-05 12:51 40.11548 2.69280 13036 ft 315 kts 124°
2026-05-05 12:51 40.10453 2.71752 12712 ft 313 kts 124°
2026-05-05 12:51 40.09367 2.74201 12391 ft 311 kts 124°
2026-05-05 12:51 40.08282 2.76643 12078 ft 309 kts 124°
2026-05-05 12:52 40.07207 2.79063 11763 ft 308 kts 124°
2026-05-05 12:52 40.06136 2.81471 11444 ft 306 kts 124°
2026-05-05 12:52 40.05070 2.83868 11139 ft 304 kts 124°
2026-05-05 12:52 40.04011 2.86248 10829 ft 303 kts 124°
2026-05-05 12:53 40.02955 2.88617 10524 ft 301 kts 123°
2026-05-05 12:53 40.01955 2.90863 10226 ft 300 kts 123°
2026-05-05 12:53 40.00911 2.93203 10037 ft 294 kts 123°
2026-05-05 12:53 39.99891 2.95491 9793 ft 291 kts 123°
2026-05-05 12:54 39.97865 3.00025 9174 ft 288 kts 123°
2026-05-05 12:54 39.96860 3.02272 8875 ft 286 kts 123°
2026-05-05 12:54 39.95861 3.04504 8590 ft 284 kts 123°
2026-05-05 12:55 39.94869 3.06718 8298 ft 282 kts 123°
2026-05-05 12:55 39.93863 3.08902 8013 ft 279 kts 129°
2026-05-05 12:55 39.92433 3.10526 7742 ft 271 kts 157°
2026-05-05 12:55 39.90634 3.11164 7385 ft 269 kts 179°
2026-05-05 12:56 39.88778 3.11061 7114 ft 266 kts 187°
2026-05-05 12:56 39.86944 3.10819 6820 ft 265 kts 188°
2026-05-05 12:56 39.85142 3.10567 6561 ft 265 kts 188°
2026-05-05 12:56 39.84525 3.10482 6475 ft 265 kts 187°
2026-05-05 12:57 39.82932 3.10264 6185 ft 267 kts 187°
2026-05-05 12:57 39.81090 3.10024 5939 ft 265 kts 187°
2026-05-05 12:57 39.79248 3.09790 5648 ft 266 kts 187°
2026-05-05 12:57 39.77406 3.09559 5368 ft 265 kts 187°
2026-05-05 12:58 39.75575 3.09332 5094 ft 265 kts 187°
2026-05-05 12:58 39.73740 3.09105 4845 ft 263 kts 187°
2026-05-05 12:58 39.71958 3.08844 4733 ft 251 kts 196°
2026-05-05 12:58 39.70508 3.07788 4627 ft 233 kts 226°
2026-05-05 12:59 39.69569 3.06163 4542 ft 219 kts 238°
2026-05-05 12:59 39.68927 3.04769 4477 ft 213 kts 239°
2026-05-05 12:59 39.68425 3.03658 4408 ft 210 kts 239°
2026-05-05 13:00 39.66758 2.99994 3969 ft 203 kts 240°
2026-05-05 13:00 39.66058 2.98409 3734 ft 201 kts 239°
2026-05-05 13:01 39.64022 2.94073 3065 ft 174 kts 238°
2026-05-05 13:01 39.63406 2.92779 2933 ft 166 kts 237°
2026-05-05 13:01 39.62796 2.91490 2746 ft 169 kts 236°
2026-05-05 13:01 39.62194 2.90219 2507 ft 161 kts 237°
2026-05-05 13:02 39.61627 2.89018 2305 ft 152 kts 236°
2026-05-05 13:02 39.61084 2.87877 2106 ft 145 kts 235°
2026-05-05 13:02 39.60572 2.86802 1913 ft 137 kts 236°
2026-05-05 13:02 39.60233 2.86084 1847 ft 150 kts 236°
2026-05-05 13:03 39.59665 2.84884 1635 ft 155 kts 236°
2026-05-05 13:03 39.59114 2.83717 1389 ft 145 kts 236°
2026-05-05 13:03 39.58597 2.82627 1196 ft 140 kts 236°
2026-05-05 13:03 39.58084 2.81545 1032 ft 142 kts 237°
2026-05-05 13:04 39.57560 2.80438 824 ft 146 kts 237°
2026-05-05 13:04 39.57027 2.79310 664 ft 145 kts 237°
2026-05-05 13:04 39.56502 2.78198 432 ft 142 kts 238°
2026-05-05 13:04 39.56000 2.77125 241 ft 137 kts 239°
2026-05-05 13:05 39.55505 2.76090 54 ft 133 kts 237°
2026-05-05 13:05 39.55036 2.75095 37 ft 118 kts 239°
2026-05-05 13:05 39.54822 2.74581 36 ft 47 kts 259°
2026-05-05 13:05 39.54807 2.74425 37 ft 6 kts 267°
2026-05-05 13:06 39.54805 2.74344 37 ft 11 kts 268°
2026-05-05 13:06 39.54803 2.74243 37 ft 11 kts 268°
2026-05-05 13:06 39.54819 2.74149 37 ft 11 kts 303°
2026-05-05 13:06 39.54884 2.74081 36 ft 15 kts 328°
2026-05-05 13:07 39.54978 2.74007 37 ft 16 kts 329°
2026-05-05 13:07 39.55071 2.73933 37 ft 15 kts 328°
2026-05-05 13:07 39.55161 2.73863 37 ft 15 kts 328°
2026-05-05 13:07 39.55246 2.73795 36 ft 14 kts 328°
2026-05-05 13:08 39.55328 2.73731 35 ft 13 kts 329°
2026-05-05 13:08 39.55406 2.73669 36 ft 13 kts 329°
2026-05-05 13:08 39.55479 2.73611 37 ft 9 kts 328°
2026-05-05 13:08 39.55500 2.73571 37 ft 4 kts 261°
2026-05-05 13:09 39.55479 2.73522 37 ft 8 kts 239°
2026-05-05 13:09 39.55451 2.73459 35 ft 8 kts 239°
2026-05-05 13:09 39.55421 2.73399 37 ft 8 kts 237°
2026-05-05 13:09 39.55372 2.73385 37 ft 8 kts 163°
2026-05-05 13:10 39.55327 2.73404 36 ft 3 kts 162°